Time,TemperatureF,DewpointF,PressureIn,WindDirection,WindDirectionDegrees,WindSpeedMPH,WindSpeedGustMPH,Humidity,HourlyPrecipIn,Conditions,Clouds,dailyrainin,SoftwareType,DateUTC
2013-01-04 00:00:00,59.7,57.4,30.02,North,0,0.0,0.0,92,0.06,,SKC,0.00,VWS V14.00,2013-01-04 05:00:00,
2013-01-04 00:03:00,59.7,57.4,30.02,North,0,0.0,0.0,92,0.06,,SKC,0.00,VWS V14.00,2013-01-04 05:03:00,
2013-01-04 00:04:00,59.7,57.4,30.02,North,0,0.0,0.0,92,0.06,,SKC,0.00,VWS V14.00,2013-01-04 05:04:00,
2013-01-04 00:09:00,59.7,57.4,30.02,North,0,0.0,0.0,92,0.06,,SKC,0.00,VWS V14.00,2013-01-04 05:09:00,
2013-01-04 00:14:00,59.5,57.5,30.02,NNE,22,0.0,0.0,93,0.06,,SKC,0.00,VWS V14.00,2013-01-04 05:14:00,
2013-01-04 00:19:00,59.5,57.5,30.02,NNE,22,0.0,0.0,93,0.06,,SKC,0.00,VWS V14.00,2013-01-04 05:19:00,
2013-01-04 00:24:00,59.5,57.8,30.02,NNE,22,0.0,0.0,94,0.04,,SKC,0.00,VWS V14.00,2013-01-04 05:24:00,
2013-01-04 00:29:00,59.3,57.6,30.02,NNE,22,0.0,0.0,94,0.04,,SKC,0.00,VWS V14.00,2013-01-04 05:29:00,
2013-01-04 00:34:00,59.1,57.4,30.02,NNW,338,0.0,0.0,94,0.04,,SKC,0.02,VWS V14.00,2013-01-04 05:34:00,
2013-01-04 00:39:00,59.0,57.3,30.02,NNE,22,0.0,0.0,94,0.04,,SKC,0.02,VWS V14.00,2013-01-04 05:39:00,
2013-01-04 00:44:00,59.1,57.4,30.01,NNE,22,0.0,0.0,94,0.06,,SKC,0.04,VWS V14.00,2013-01-04 05:44:00,
2013-01-04 00:49:00,59.0,57.3,30.01,NNE,22,0.0,0.0,94,0.06,,SKC,0.04,VWS V14.00,2013-01-04 05:49:00,
2013-01-04 00:55:00,59.0,57.3,30.01,North,0,0.0,0.0,94,0.04,,SKC,0.04,VWS V14.00,2013-01-04 05:55:00,
2013-01-04 01:00:00,59.0,57.3,30.01,North,0,0.0,0.0,94,0.04,,SKC,0.00,VWS V14.00,2013-01-04 06:00:00,
2013-01-04 01:05:00,59.0,57.3,30.01,North,0,0.0,0.0,94,0.04,,SKC,0.04,VWS V14.00,2013-01-04 06:05:00,
2013-01-04 01:10:00,59.0,57.3,30.01,North,0,0.0,0.0,94,0.04,,SKC,0.04,VWS V14.00,2013-01-04 06:10:00,
2013-01-04 01:16:00,59.0,57.3,30.01,North,0,0.0,0.0,94,0.04,,SKC,0.04,VWS V14.00,2013-01-04 06:16:00,
2013-01-04 01:21:00,59.0,57.3,30.01,North,0,0.0,0.0,94,0.04,,SKC,0.04,VWS V14.00,2013-01-04 06:21:00,
2013-01-04 01:26:00,59.0,57.3,30.02,NNE,22,0.0,0.0,94,0.04,,SKC,0.04,VWS V14.00,2013-01-04 06:26:00,
2013-01-04 01:32:00,59.0,57.3,30.02,NNE,22,0.0,0.0,94,0.04,,SKC,0.04,VWS V14.00,2013-01-04 06:32:00,
2013-01-04 01:37:00,58.8,56.8,30.02,NNE,22,0.0,0.0,93,0.04,,SKC,0.04,VWS V14.00,2013-01-04 06:37:00,
2013-01-04 01:42:00,58.6,56.9,30.02,North,0,0.0,0.0,94,0.02,,SKC,0.04,VWS V14.00,2013-01-04 06:42:00,
2013-01-04 01:47:00,58.4,56.4,30.02,NNE,22,0.0,0.0,93,0.02,,SKC,0.04,VWS V14.00,2013-01-04 06:47:00,
2013-01-04 01:53:00,58.1,56.1,30.02,North,0,0.0,0.0,93,0.00,,SKC,0.04,VWS V14.00,2013-01-04 06:53:00,
2013-01-04 01:58:00,57.9,55.9,30.03,North,0,0.0,0.0,93,0.00,,SKC,0.04,VWS V14.00,2013-01-04 06:58:00,
2013-01-04 02:04:00,57.7,55.7,30.02,NNE,22,0.0,0.0,93,0.00,,SKC,0.04,VWS V14.00,2013-01-04 07:04:00,
2013-01-04 02:09:00,57.7,55.7,30.02,NNE,22,0.0,0.0,93,0.00,,SKC,0.04,VWS V14.00,2013-01-04 07:09:00,
2013-01-04 02:15:00,57.3,55.3,30.03,NNE,22,0.0,0.0,93,0.00,,SKC,0.04,VWS V14.00,2013-01-04 07:15:00,
2013-01-04 02:20:00,57.2,55.2,30.03,NNE,22,0.0,0.0,93,0.00,,SKC,0.04,VWS V14.00,2013-01-04 07:20:00,
2013-01-04 02:25:00,57.0,55.0,30.02,North,0,0.0,0.0,93,0.00,,SKC,0.04,VWS V14.00,2013-01-04 07:25:00,
2013-01-04 02:30:00,56.8,54.8,30.02,North,0,0.0,0.0,93,0.00,,SKC,0.04,VWS V14.00,2013-01-04 07:30:00,
2013-01-04 02:35:00,56.4,54.1,30.02,NNE,22,0.0,0.0,92,0.00,,SKC,0.04,VWS V14.00,2013-01-04 07:35:00,
2013-01-04 02:40:00,56.4,54.1,30.02,NNE,22,0.0,0.0,92,0.00,,SKC,0.04,VWS V14.00,2013-01-04 07:40:00,
2013-01-04 02:45:00,56.4,54.4,30.03,NNE,22,0.0,0.0,93,0.00,,SKC,0.04,VWS V14.00,2013-01-04 07:45:00,
2013-01-04 02:50:00,56.4,54.4,30.03,North,0,0.0,0.0,93,0.00,,SKC,0.04,VWS V14.00,2013-01-04 07:50:00,
2013-01-04 02:55:00,56.4,54.4,30.03,North,0,0.0,0.0,93,0.00,,SKC,0.04,VWS V14.00,2013-01-04 07:55:00,
2013-01-04 03:01:00,56.4,54.4,30.03,North,0,0.0,0.0,93,0.00,,SKC,0.04,VWS V14.00,2013-01-04 08:01:00,
2013-01-04 03:06:00,56.4,54.4,30.03,North,0,0.0,0.0,93,0.00,,SKC,0.04,VWS V14.00,2013-01-04 08:06:00,
2013-01-04 03:11:00,56.4,54.4,30.03,North,0,0.0,0.0,93,0.00,,SKC,0.04,VWS V14.00,2013-01-04 08:11:00,
2013-01-04 03:16:00,56.1,54.1,30.03,North,0,0.0,0.0,93,0.00,,SKC,0.04,VWS V14.00,2013-01-04 08:16:00,
2013-01-04 03:21:00,55.9,53.9,30.03,North,0,0.0,0.0,93,0.00,,SKC,0.04,VWS V14.00,2013-01-04 08:21:00,
2013-01-04 03:26:00,56.1,54.1,30.03,North,0,0.0,0.0,93,0.02,,SKC,0.06,VWS V14.00,2013-01-04 08:26:00,
2013-01-04 03:31:00,56.1,54.1,30.02,NNW,338,0.0,0.0,93,0.02,,SKC,0.06,VWS V14.00,2013-01-04 08:31:00,
2013-01-04 03:36:00,55.9,53.9,30.02,North,0,0.0,0.0,93,0.02,,SKC,0.06,VWS V14.00,2013-01-04 08:36:00,
2013-01-04 03:41:00,55.9,53.9,30.02,North,0,0.0,0.0,93,0.02,,SKC,0.06,VWS V14.00,2013-01-04 08:41:00,
2013-01-04 03:47:00,56.1,54.1,30.02,NNE,22,0.0,0.0,93,0.02,,SKC,0.06,VWS V14.00,2013-01-04 08:47:00,
2013-01-04 03:52:00,56.1,54.1,30.02,North,0,0.0,0.0,93,0.02,,SKC,0.06,VWS V14.00,2013-01-04 08:52:00,
2013-01-04 03:57:00,56.1,54.1,30.02,NE,45,0.0,0.0,93,0.02,,SKC,0.06,VWS V14.00,2013-01-04 08:57:00,
2013-01-04 04:02:00,56.1,54.1,30.02,NNE,22,0.0,0.0,93,0.02,,SKC,0.06,VWS V14.00,2013-01-04 09:02:00,
2013-01-04 04:07:00,56.1,54.1,30.02,NNE,22,0.0,0.0,93,0.02,,SKC,0.06,VWS V14.00,2013-01-04 09:07:00,
2013-01-04 04:12:00,56.1,54.1,30.02,NNE,22,0.0,0.0,93,0.02,,SKC,0.06,VWS V14.00,2013-01-04 09:12:00,
2013-01-04 04:17:00,56.1,54.1,30.02,NNE,22,0.0,0.0,93,0.02,,SKC,0.06,VWS V14.00,2013-01-04 09:17:00,
2013-01-04 04:22:00,56.1,54.4,30.02,NNE,22,0.0,0.0,94,0.02,,SKC,0.06,VWS V14.00,2013-01-04 09:22:00,
2013-01-04 04:27:00,56.3,54.6,30.02,North,0,0.0,0.0,94,0.02,,SKC,0.06,VWS V14.00,2013-01-04 09:27:00,
2013-01-04 04:33:00,56.3,54.6,30.02,North,0,0.0,0.0,94,0.00,,SKC,0.06,VWS V14.00,2013-01-04 09:33:00,
2013-01-04 04:38:00,56.4,54.7,30.02,North,0,0.0,0.0,94,0.00,,SKC,0.06,VWS V14.00,2013-01-04 09:38:00,
2013-01-04 04:43:00,56.4,54.7,30.02,NNE,22,0.0,0.0,94,0.00,,SKC,0.06,VWS V14.00,2013-01-04 09:43:00,
2013-01-04 04:48:00,56.4,54.7,30.02,NNE,22,0.0,0.0,94,0.00,,SKC,0.06,VWS V14.00,2013-01-04 09:48:00,
2013-01-04 04:53:00,56.4,54.7,30.02,North,0,0.0,0.0,94,0.00,,SKC,0.06,VWS V14.00,2013-01-04 09:53:00,
2013-01-04 04:58:00,56.4,54.7,30.03,North,0,0.0,0.0,94,0.00,,SKC,0.06,VWS V14.00,2013-01-04 09:58:00,
2013-01-04 05:03:00,56.4,54.7,30.03,North,0,0.0,0.0,94,0.00,,SKC,0.06,VWS V14.00,2013-01-04 10:03:00,
2013-01-04 05:08:00,56.4,54.7,30.03,NNE,22,0.0,0.0,94,0.00,,SKC,0.06,VWS V14.00,2013-01-04 10:08:00,
2013-01-04 05:13:00,56.6,54.9,30.03,NNE,22,0.0,0.0,94,0.02,,SKC,0.08,VWS V14.00,2013-01-04 10:13:00,
2013-01-04 05:18:00,56.6,54.9,30.04,North,0,0.0,0.0,94,0.02,,SKC,0.08,VWS V14.00,2013-01-04 10:18:00,
2013-01-04 05:24:00,56.8,55.1,30.04,NNE,22,0.0,0.0,94,0.02,,SKC,0.08,VWS V14.00,2013-01-04 10:24:00,
2013-01-04 05:29:00,56.8,55.1,30.04,North,0,0.0,0.0,94,0.02,,SKC,0.08,VWS V14.00,2013-01-04 10:29:00,
2013-01-04 05:34:00,56.8,55.1,30.04,North,0,0.0,0.0,94,0.02,,SKC,0.08,VWS V14.00,2013-01-04 10:34:00,
2013-01-04 05:39:00,56.6,54.9,30.04,NNE,22,0.0,0.0,94,0.02,,SKC,0.08,VWS V14.00,2013-01-04 10:39:00,
2013-01-04 05:44:00,56.4,54.7,30.04,NNE,22,0.0,0.0,94,0.02,,SKC,0.08,VWS V14.00,2013-01-04 10:44:00,
2013-01-04 05:49:00,56.4,54.7,30.05,NNE,22,0.0,0.0,94,0.02,,SKC,0.08,VWS V14.00,2013-01-04 10:49:00,
2013-01-04 05:54:00,56.4,54.7,30.05,North,0,0.0,0.0,94,0.02,,SKC,0.08,VWS V14.00,2013-01-04 10:54:00,
2013-01-04 05:59:00,56.3,54.6,30.05,North,0,0.0,0.0,94,0.02,,SKC,0.08,VWS V14.00,2013-01-04 10:59:00,
2013-01-04 06:04:00,56.3,54.6,30.05,North,0,0.0,0.0,94,0.02,,SKC,0.08,VWS V14.00,2013-01-04 11:04:00,
2013-01-04 06:10:00,56.4,54.7,30.05,North,0,0.0,0.0,94,0.02,,SKC,0.08,VWS V14.00,2013-01-04 11:10:00,
2013-01-04 06:15:00,56.4,54.7,30.05,North,0,0.0,0.0,94,0.02,,SKC,0.08,VWS V14.00,2013-01-04 11:15:00,
2013-01-04 06:20:00,56.3,54.3,30.05,NNE,22,0.0,0.0,93,0.04,,SKC,0.10,VWS V14.00,2013-01-04 11:20:00,
2013-01-04 06:25:00,56.1,54.1,30.05,NNE,22,0.0,0.0,93,0.02,,SKC,0.10,VWS V14.00,2013-01-04 11:25:00,
2013-01-04 06:30:00,55.9,53.9,30.05,NNE,22,0.0,0.0,93,0.02,,SKC,0.10,VWS V14.00,2013-01-04 11:30:00,
2013-01-04 06:35:00,55.7,53.7,30.06,NNE,22,0.0,0.0,93,0.02,,SKC,0.10,VWS V14.00,2013-01-04 11:35:00,
2013-01-04 06:40:00,55.7,53.7,30.05,NNE,22,0.0,0.0,93,0.02,,SKC,0.10,VWS V14.00,2013-01-04 11:40:00,
2013-01-04 06:45:00,55.5,53.5,30.06,NNE,22,0.0,0.0,93,0.02,,SKC,0.10,VWS V14.00,2013-01-04 11:45:00,
2013-01-04 06:50:00,55.5,53.5,30.06,NNE,22,0.0,0.0,93,0.02,,SKC,0.10,VWS V14.00,2013-01-04 11:50:00,
2013-01-04 06:55:00,55.5,53.5,30.06,NNE,22,0.0,0.0,93,0.02,,SKC,0.10,VWS V14.00,2013-01-04 11:55:00,
2013-01-04 07:00:00,55.4,53.4,30.06,NNE,22,0.0,0.0,93,0.02,,SKC,0.10,VWS V14.00,2013-01-04 12:00:00,
2013-01-04 07:06:00,55.2,53.2,30.06,NNE,22,0.0,0.0,93,0.02,,SKC,0.10,VWS V14.00,2013-01-04 12:06:00,
2013-01-04 07:11:00,55.2,53.2,30.07,NNE,22,0.0,0.0,93,0.02,,SKC,0.10,VWS V14.00,2013-01-04 12:11:00,
2013-01-04 07:16:00,55.2,53.2,30.07,NNE,22,0.0,0.0,93,0.02,,SKC,0.10,VWS V14.00,2013-01-04 12:16:00,
2013-01-04 07:21:00,55.2,53.2,30.07,NNE,22,0.0,0.0,93,0.00,,SKC,0.10,VWS V14.00,2013-01-04 12:21:00,
2013-01-04 07:26:00,55.0,53.0,30.07,North,0,0.0,0.0,93,0.00,,SKC,0.10,VWS V14.00,2013-01-04 12:26:00,
2013-01-04 07:31:00,55.0,53.0,30.08,North,0,0.0,0.0,93,0.00,,SKC,0.10,VWS V14.00,2013-01-04 12:31:00,
2013-01-04 07:36:00,55.0,53.0,30.08,NNE,22,0.0,0.0,93,0.00,,SKC,0.10,VWS V14.00,2013-01-04 12:36:00,
2013-01-04 07:42:00,55.0,53.0,30.08,North,0,0.0,0.0,93,0.00,,SKC,0.10,VWS V14.00,2013-01-04 12:42:00,
2013-01-04 07:47:00,55.0,53.0,30.08,NNE,22,0.0,0.0,93,0.00,,SKC,0.10,VWS V14.00,2013-01-04 12:47:00,
2013-01-04 07:52:00,55.0,53.0,30.09,NNE,22,0.0,0.0,93,0.00,,SKC,0.10,VWS V14.00,2013-01-04 12:52:00,
2013-01-04 07:57:00,55.0,53.0,30.09,NNE,22,0.0,0.0,93,0.00,,SKC,0.10,VWS V14.00,2013-01-04 12:57:00,
2013-01-04 08:02:00,55.0,53.0,30.09,NNE,22,0.0,0.0,93,0.00,,SKC,0.10,VWS V14.00,2013-01-04 13:02:00,
2013-01-04 08:07:00,55.0,53.0,30.09,NNE,22,0.0,0.0,93,0.00,,SKC,0.10,VWS V14.00,2013-01-04 13:07:00,
2013-01-04 08:12:00,55.0,53.0,30.09,NNE,22,0.0,0.0,93,0.00,,SKC,0.10,VWS V14.00,2013-01-04 13:12:00,
2013-01-04 08:18:00,55.0,53.0,30.09,NNE,22,0.0,0.0,93,0.00,,SKC,0.10,VWS V14.00,2013-01-04 13:18:00,
2013-01-04 08:23:00,55.0,53.0,30.09,North,0,0.0,0.0,93,0.00,,SKC,0.10,VWS V14.00,2013-01-04 13:23:00,
2013-01-04 08:28:00,55.0,53.3,30.09,North,0,0.0,0.0,94,0.00,,SKC,0.10,VWS V14.00,2013-01-04 13:28:00,
2013-01-04 08:33:00,55.0,53.3,30.10,NNE,22,0.0,0.0,94,0.00,,SKC,0.10,VWS V14.00,2013-01-04 13:33:00,
2013-01-04 08:38:00,55.0,53.3,30.10,NNE,22,0.0,0.0,94,0.00,,SKC,0.10,VWS V14.00,2013-01-04 13:38:00,
2013-01-04 08:43:00,55.2,53.5,30.10,NNE,22,0.0,0.0,94,0.00,,SKC,0.10,VWS V14.00,2013-01-04 13:43:00,
2013-01-04 08:48:00,55.2,53.5,30.10,NNE,22,0.0,0.0,94,0.02,,SKC,0.13,VWS V14.00,2013-01-04 13:48:00,
2013-01-04 08:53:00,55.2,53.5,30.10,North,0,0.0,0.0,94,0.04,,SKC,0.15,VWS V14.00,2013-01-04 13:53:00,
2013-01-04 08:58:00,55.2,53.5,30.10,North,0,0.0,0.0,94,0.04,,SKC,0.15,VWS V14.00,2013-01-04 13:58:00,
2013-01-04 09:03:00,55.5,53.8,30.10,North,0,0.0,0.0,94,0.06,,SKC,0.17,VWS V14.00,2013-01-04 14:03:00,
2013-01-04 09:09:00,55.5,53.8,30.10,North,0,0.0,0.0,94,0.06,,SKC,0.17,VWS V14.00,2013-01-04 14:09:00,
2013-01-04 09:14:00,55.5,53.8,30.10,North,0,0.0,0.0,94,0.06,,SKC,0.17,VWS V14.00,2013-01-04 14:14:00,
2013-01-04 09:19:00,55.7,54.0,30.10,North,0,0.0,0.0,94,0.06,,SKC,0.17,VWS V14.00,2013-01-04 14:19:00,
2013-01-04 09:24:00,55.7,54.0,30.10,North,0,0.0,0.0,94,0.06,,SKC,0.17,VWS V14.00,2013-01-04 14:24:00,
2013-01-04 09:29:00,55.9,54.2,30.10,North,0,0.0,0.0,94,0.06,,SKC,0.17,VWS V14.00,2013-01-04 14:29:00,
2013-01-04 09:34:00,56.3,54.6,30.10,North,0,0.0,0.0,94,0.06,,SKC,0.17,VWS V14.00,2013-01-04 14:34:00,
2013-01-04 09:39:00,56.1,54.4,30.10,North,0,0.0,0.0,94,0.06,,SKC,0.17,VWS V14.00,2013-01-04 14:39:00,
2013-01-04 09:44:00,56.1,54.4,30.11,NNE,22,0.0,0.0,94,0.06,,SKC,0.17,VWS V14.00,2013-01-04 14:44:00,
2013-01-04 09:49:00,56.3,54.6,30.11,NNE,22,0.0,0.0,94,0.06,,SKC,0.17,VWS V14.00,2013-01-04 14:49:00,
2013-01-04 09:54:00,56.3,54.6,30.11,NNE,22,0.0,0.0,94,0.04,,SKC,0.17,VWS V14.00,2013-01-04 14:54:00,
2013-01-04 10:00:00,56.4,54.7,30.11,NNE,22,0.0,0.0,94,0.04,,SKC,0.17,VWS V14.00,2013-01-04 15:00:00,
2013-01-04 10:05:00,56.4,54.7,30.11,NNE,22,0.0,0.0,94,0.00,,SKC,0.17,VWS V14.00,2013-01-04 15:05:00,
2013-01-04 10:10:00,56.8,55.1,30.11,NNE,22,0.0,0.0,94,0.00,,SKC,0.17,VWS V14.00,2013-01-04 15:10:00,
2013-01-04 10:15:00,56.8,55.1,30.11,North,0,0.0,0.0,94,0.00,,SKC,0.17,VWS V14.00,2013-01-04 15:15:00,
2013-01-04 10:20:00,56.8,55.1,30.11,North,0,0.0,0.0,94,0.00,,SKC,0.17,VWS V14.00,2013-01-04 15:20:00,
2013-01-04 10:25:00,56.8,55.4,30.11,North,0,0.0,0.0,95,0.00,,SKC,0.17,VWS V14.00,2013-01-04 15:25:00,
2013-01-04 10:30:00,56.8,55.4,30.11,North,0,0.0,0.0,95,0.00,,SKC,0.17,VWS V14.00,2013-01-04 15:30:00,
2013-01-04 10:35:00,56.8,55.4,30.11,North,0,0.0,0.0,95,0.00,,SKC,0.17,VWS V14.00,2013-01-04 15:35:00,
2013-01-04 10:40:00,57.2,55.8,30.11,North,0,0.0,0.0,95,0.02,,SKC,0.19,VWS V14.00,2013-01-04 15:40:00,
2013-01-04 10:45:00,57.3,55.9,30.11,North,0,0.0,0.0,95,0.02,,SKC,0.19,VWS V14.00,2013-01-04 15:45:00,
2013-01-04 10:51:00,57.3,55.9,30.11,North,0,0.0,0.0,95,0.02,,SKC,0.19,VWS V14.00,2013-01-04 15:51:00,
2013-01-04 10:56:00,57.5,56.1,30.10,North,0,0.0,0.0,95,0.02,,SKC,0.19,VWS V14.00,2013-01-04 15:56:00,
2013-01-04 11:01:00,57.5,56.1,30.10,North,0,0.0,0.0,95,0.02,,SKC,0.19,VWS V14.00,2013-01-04 16:01:00,
2013-01-04 11:06:00,57.7,56.3,30.10,North,0,0.0,0.0,95,0.02,,SKC,0.19,VWS V14.00,2013-01-04 16:06:00,
2013-01-04 11:11:00,57.7,56.3,30.10,North,0,0.0,0.0,95,0.02,,SKC,0.19,VWS V14.00,2013-01-04 16:11:00,
2013-01-04 11:16:00,57.9,56.5,30.10,North,0,0.0,0.0,95,0.02,,SKC,0.19,VWS V14.00,2013-01-04 16:16:00,
2013-01-04 11:21:00,57.9,56.5,30.10,North,0,0.0,0.0,95,0.02,,SKC,0.19,VWS V14.00,2013-01-04 16:21:00,
2013-01-04 11:26:00,57.9,56.5,30.10,North,0,0.0,0.0,95,0.02,,SKC,0.19,VWS V14.00,2013-01-04 16:26:00,
2013-01-04 11:32:00,58.1,56.7,30.10,North,0,0.0,0.0,95,0.02,,SKC,0.19,VWS V14.00,2013-01-04 16:32:00,
2013-01-04 11:37:00,58.2,56.8,30.10,North,0,0.0,0.0,95,0.02,,SKC,0.19,VWS V14.00,2013-01-04 16:37:00,
2013-01-04 11:42:00,58.2,56.8,30.10,North,0,0.0,0.0,95,0.00,,SKC,0.19,VWS V14.00,2013-01-04 16:42:00,
2013-01-04 11:47:00,58.2,56.8,30.09,North,0,0.0,0.0,95,0.00,,SKC,0.19,VWS V14.00,2013-01-04 16:47:00,
2013-01-04 11:52:00,58.2,56.8,30.09,North,0,0.0,0.0,95,0.00,,SKC,0.19,VWS V14.00,2013-01-04 16:52:00,
2013-01-04 11:57:00,58.6,57.2,30.09,North,0,0.0,0.0,95,0.00,,SKC,0.19,VWS V14.00,2013-01-04 16:57:00,
2013-01-04 12:02:00,58.6,57.2,30.09,North,0,0.0,0.0,95,0.00,,SKC,0.19,VWS V14.00,2013-01-04 17:02:00,
2013-01-04 12:07:00,58.8,57.4,30.09,North,0,0.0,0.0,95,0.00,,SKC,0.19,VWS V14.00,2013-01-04 17:07:00,
2013-01-04 12:12:00,58.8,57.4,30.08,North,0,0.0,0.0,95,0.00,,SKC,0.19,VWS V14.00,2013-01-04 17:12:00,
2013-01-04 12:18:00,58.8,57.4,30.08,North,0,0.0,0.0,95,0.00,,SKC,0.19,VWS V14.00,2013-01-04 17:18:00,
2013-01-04 12:23:00,58.8,57.1,30.08,North,0,0.0,0.0,94,0.00,,SKC,0.19,VWS V14.00,2013-01-04 17:23:00,
2013-01-04 12:28:00,58.8,57.1,30.08,North,0,0.0,0.0,94,0.00,,SKC,0.19,VWS V14.00,2013-01-04 17:28:00,
2013-01-04 12:33:00,58.8,57.1,30.08,North,0,0.0,0.0,94,0.00,,SKC,0.19,VWS V14.00,2013-01-04 17:33:00,
2013-01-04 12:38:00,59.0,57.3,30.07,NNE,22,0.0,0.0,94,0.00,,SKC,0.19,VWS V14.00,2013-01-04 17:38:00,
2013-01-04 12:43:00,58.8,57.1,30.08,North,0,0.0,0.0,94,0.00,,SKC,0.19,VWS V14.00,2013-01-04 17:43:00,
2013-01-04 12:48:00,58.6,56.9,30.08,NNE,22,0.0,0.0,94,0.00,,SKC,0.19,VWS V14.00,2013-01-04 17:48:00,
2013-01-04 12:53:00,58.8,57.1,30.07,North,0,0.0,0.0,94,0.00,,SKC,0.19,VWS V14.00,2013-01-04 17:53:00,
2013-01-04 12:58:00,58.8,57.1,30.06,North,0,0.0,0.0,94,0.00,,SKC,0.19,VWS V14.00,2013-01-04 17:58:00,
2013-01-04 13:04:00,58.8,57.1,30.06,North,0,0.0,0.0,94,0.00,,SKC,0.19,VWS V14.00,2013-01-04 18:04:00,
2013-01-04 13:09:00,58.8,57.1,30.06,NNE,22,0.0,0.0,94,0.00,,SKC,0.19,VWS V14.00,2013-01-04 18:09:00,
2013-01-04 13:14:00,58.8,57.1,30.06,NNE,22,0.0,0.0,94,0.00,,SKC,0.19,VWS V14.00,2013-01-04 18:14:00,
2013-01-04 13:19:00,58.6,56.9,30.06,NNE,22,0.0,0.0,94,0.00,,SKC,0.19,VWS V14.00,2013-01-04 18:19:00,
2013-01-04 13:24:00,58.6,56.9,30.06,NNE,22,0.0,0.0,94,0.00,,SKC,0.19,VWS V14.00,2013-01-04 18:24:00,
2013-01-04 13:29:00,58.8,57.1,30.06,NNE,22,0.0,0.0,94,0.00,,SKC,0.19,VWS V14.00,2013-01-04 18:29:00,
2013-01-04 13:34:00,59.0,57.3,30.05,NNE,22,0.0,0.0,94,0.00,,SKC,0.19,VWS V14.00,2013-01-04 18:34:00,
2013-01-04 13:40:00,59.0,57.3,30.05,NNE,22,0.0,0.0,94,0.02,,SKC,0.20,VWS V14.00,2013-01-04 18:40:00,
2013-01-04 13:45:00,59.0,57.3,30.05,NNE,22,0.0,0.0,94,0.02,,SKC,0.20,VWS V14.00,2013-01-04 18:45:00,
2013-01-04 13:50:00,59.0,57.3,30.05,North,0,0.0,0.0,94,0.02,,SKC,0.20,VWS V14.00,2013-01-04 18:50:00,
2013-01-04 13:55:00,59.0,57.3,30.05,North,0,0.0,0.0,94,0.02,,SKC,0.20,VWS V14.00,2013-01-04 18:55:00,
2013-01-04 14:00:00,59.0,57.3,30.05,North,0,0.0,0.0,94,0.02,,SKC,0.20,VWS V14.00,2013-01-04 19:00:00,
2013-01-04 14:05:00,59.0,57.3,30.05,North,0,0.0,0.0,94,0.02,,SKC,0.20,VWS V14.00,2013-01-04 19:05:00,
2013-01-04 14:10:00,59.0,57.3,30.05,North,0,0.0,0.0,94,0.02,,SKC,0.20,VWS V14.00,2013-01-04 19:10:00,
2013-01-04 14:15:00,59.0,57.3,30.05,North,0,0.0,0.0,94,0.02,,SKC,0.20,VWS V14.00,2013-01-04 19:15:00,
2013-01-04 14:20:00,59.0,57.3,30.05,North,0,0.0,0.0,94,0.02,,SKC,0.20,VWS V14.00,2013-01-04 19:20:00,
2013-01-04 14:25:00,59.0,57.3,30.05,North,0,0.0,0.0,94,0.02,,SKC,0.20,VWS V14.00,2013-01-04 19:25:00,
2013-01-04 14:30:00,59.0,57.3,30.05,North,0,0.0,0.0,94,0.02,,SKC,0.20,VWS V14.00,2013-01-04 19:30:00,
2013-01-04 14:36:00,59.0,57.3,30.05,North,0,0.0,0.0,94,0.02,,SKC,0.20,VWS V14.00,2013-01-04 19:36:00,
2013-01-04 14:41:00,59.0,57.3,30.05,North,0,0.0,0.0,94,0.00,,SKC,0.20,VWS V14.00,2013-01-04 19:41:00,
2013-01-04 14:46:00,59.0,57.3,30.05,North,0,0.0,0.0,94,0.00,,SKC,0.20,VWS V14.00,2013-01-04 19:46:00,
2013-01-04 14:51:00,59.0,57.3,30.05,North,0,0.0,0.0,94,0.00,,SKC,0.20,VWS V14.00,2013-01-04 19:51:00,
2013-01-04 14:56:00,59.0,57.3,30.05,NNE,22,0.0,0.0,94,0.02,,SKC,0.22,VWS V14.00,2013-01-04 19:56:00,
2013-01-04 15:01:00,59.0,57.3,30.05,NNE,22,0.0,0.0,94,0.02,,SKC,0.22,VWS V14.00,2013-01-04 20:01:00,
2013-01-04 15:06:00,59.0,57.3,30.05,NNE,22,0.0,0.0,94,0.02,,SKC,0.22,VWS V14.00,2013-01-04 20:06:00,
2013-01-04 15:11:00,59.0,57.3,30.05,NNE,22,0.0,0.0,94,0.02,,SKC,0.22,VWS V14.00,2013-01-04 20:11:00,
2013-01-04 15:16:00,59.0,57.3,30.05,NNE,22,0.0,0.0,94,0.02,,SKC,0.22,VWS V14.00,2013-01-04 20:16:00,
2013-01-04 15:22:00,59.0,57.3,30.05,NNE,22,0.0,0.0,94,0.02,,SKC,0.22,VWS V14.00,2013-01-04 20:22:00,
2013-01-04 15:27:00,59.0,57.3,30.05,NNE,22,0.0,0.0,94,0.02,,SKC,0.22,VWS V14.00,2013-01-04 20:27:00,
2013-01-04 15:32:00,59.0,57.3,30.05,NNE,22,0.0,0.0,94,0.02,,SKC,0.22,VWS V14.00,2013-01-04 20:32:00,
2013-01-04 15:37:00,59.0,57.3,30.05,NNE,22,0.0,0.0,94,0.02,,SKC,0.22,VWS V14.00,2013-01-04 20:37:00,
2013-01-04 15:42:00,59.1,57.4,30.06,NNE,22,0.0,0.0,94,0.02,,SKC,0.22,VWS V14.00,2013-01-04 20:42:00,
2013-01-04 15:47:00,59.1,57.4,30.06,NNE,22,0.0,0.0,94,0.02,,SKC,0.22,VWS V14.00,2013-01-04 20:47:00,
2013-01-04 15:52:00,59.1,57.7,30.06,NNE,22,0.0,0.0,95,0.02,,SKC,0.22,VWS V14.00,2013-01-04 20:52:00,
2013-01-04 15:57:00,59.0,57.3,30.06,NNE,22,0.0,0.0,94,0.02,,SKC,0.22,VWS V14.00,2013-01-04 20:57:00,
2013-01-04 16:03:00,59.0,57.3,30.06,NNE,22,0.0,0.0,94,0.00,,SKC,0.22,VWS V14.00,2013-01-04 21:03:00,
2013-01-04 16:08:00,59.0,57.3,30.06,NNE,22,0.0,0.0,94,0.00,,SKC,0.22,VWS V14.00,2013-01-04 21:08:00,
2013-01-04 16:13:00,59.0,57.3,30.06,NNE,22,0.0,0.0,94,0.00,,SKC,0.22,VWS V14.00,2013-01-04 21:13:00,
2013-01-04 16:18:00,59.0,57.3,30.06,NNE,22,0.0,0.0,94,0.00,,SKC,0.22,VWS V14.00,2013-01-04 21:18:00,
2013-01-04 16:23:00,59.0,57.3,30.06,NNE,22,0.0,0.0,94,0.00,,SKC,0.22,VWS V14.00,2013-01-04 21:23:00,
2013-01-04 16:28:00,59.0,57.3,30.06,NNE,22,0.0,0.0,94,0.00,,SKC,0.22,VWS V14.00,2013-01-04 21:28:00,
2013-01-04 16:33:00,59.0,57.3,30.07,NNE,22,0.0,0.0,94,0.00,,SKC,0.22,VWS V14.00,2013-01-04 21:33:00,
2013-01-04 16:38:00,59.0,57.3,30.07,NNE,22,0.0,0.0,94,0.00,,SKC,0.22,VWS V14.00,2013-01-04 21:38:00,
2013-01-04 16:44:00,59.0,57.3,30.08,NNE,22,0.0,0.0,94,0.00,,SKC,0.22,VWS V14.00,2013-01-04 21:44:00,
2013-01-04 16:49:00,59.0,57.3,30.08,NNE,22,0.0,0.0,94,0.00,,SKC,0.22,VWS V14.00,2013-01-04 21:49:00,
2013-01-04 16:54:00,59.0,57.3,30.08,NNE,22,0.0,0.0,94,0.00,,SKC,0.22,VWS V14.00,2013-01-04 21:54:00,
2013-01-04 16:59:00,59.0,57.3,30.08,NNE,22,0.0,0.0,94,0.00,,SKC,0.22,VWS V14.00,2013-01-04 21:59:00,
2013-01-04 17:04:00,59.0,57.3,30.08,North,0,0.0,0.0,94,0.00,,SKC,0.22,VWS V14.00,2013-01-04 22:04:00,
2013-01-04 17:09:00,59.0,57.3,30.09,North,0,0.0,0.0,94,0.00,,SKC,0.22,VWS V14.00,2013-01-04 22:09:00,
2013-01-04 17:15:00,59.0,57.3,30.08,North,0,0.0,0.0,94,0.00,,SKC,0.22,VWS V14.00,2013-01-04 22:15:00,
2013-01-04 17:20:00,59.0,57.3,30.09,North,0,0.0,0.0,94,0.00,,SKC,0.22,VWS V14.00,2013-01-04 22:20:00,
2013-01-04 17:25:00,59.0,57.3,30.09,North,0,0.0,0.0,94,0.00,,SKC,0.22,VWS V14.00,2013-01-04 22:25:00,
2013-01-04 17:30:00,59.0,57.3,30.09,North,0,0.0,0.0,94,0.00,,SKC,0.22,VWS V14.00,2013-01-04 22:30:00,
2013-01-04 17:35:00,59.0,57.3,30.09,North,0,0.0,0.0,94,0.00,,SKC,0.22,VWS V14.00,2013-01-04 22:35:00,
2013-01-04 17:40:00,59.0,57.3,30.09,North,0,0.0,0.0,94,0.00,,SKC,0.22,VWS V14.00,2013-01-04 22:40:00,
2013-01-04 17:45:00,59.0,57.6,30.09,North,0,0.0,0.0,95,0.00,,SKC,0.22,VWS V14.00,2013-01-04 22:45:00,
2013-01-04 17:50:00,59.0,57.6,30.09,North,0,0.0,0.0,95,0.00,,SKC,0.22,VWS V14.00,2013-01-04 22:50:00,
2013-01-04 17:56:00,59.0,57.3,30.09,North,0,0.0,0.0,94,0.00,,SKC,0.22,VWS V14.00,2013-01-04 22:56:00,
2013-01-04 18:01:00,59.0,57.6,30.10,North,0,0.0,0.0,95,0.00,,SKC,0.22,VWS V14.00,2013-01-04 23:01:00,
2013-01-04 18:06:00,59.0,57.6,30.09,North,0,0.0,0.0,95,0.00,,SKC,0.22,VWS V14.00,2013-01-04 23:06:00,
2013-01-04 18:11:00,59.0,57.6,30.10,North,0,0.0,0.0,95,0.00,,SKC,0.22,VWS V14.00,2013-01-04 23:11:00,
2013-01-04 18:16:00,59.0,57.6,30.10,North,0,0.0,0.0,95,0.00,,SKC,0.22,VWS V14.00,2013-01-04 23:16:00,
2013-01-04 18:21:00,59.0,57.6,30.10,North,0,0.0,0.0,95,0.00,,SKC,0.22,VWS V14.00,2013-01-04 23:21:00,
2013-01-04 18:26:00,59.0,57.6,30.10,North,0,0.0,0.0,95,0.00,,SKC,0.22,VWS V14.00,2013-01-04 23:26:00,
2013-01-04 18:32:00,59.0,57.6,30.10,NNE,22,0.0,0.0,95,0.02,,SKC,0.25,VWS V14.00,2013-01-04 23:32:00,
2013-01-04 18:37:00,59.0,57.6,30.10,NNE,22,0.0,0.0,95,0.02,,SKC,0.25,VWS V14.00,2013-01-04 23:37:00,
2013-01-04 18:42:00,59.0,57.6,30.11,NNE,22,0.0,0.0,95,0.02,,SKC,0.25,VWS V14.00,2013-01-04 23:42:00,
2013-01-04 18:47:00,59.0,57.6,30.11,NNE,22,0.0,0.0,95,0.02,,SKC,0.25,VWS V14.00,2013-01-04 23:47:00,
2013-01-04 18:52:00,59.0,57.6,30.11,NNE,22,0.0,0.0,95,0.02,,SKC,0.25,VWS V14.00,2013-01-04 23:52:00,
2013-01-04 18:57:00,59.0,57.6,30.11,NNE,22,0.0,0.0,95,0.02,,SKC,0.25,VWS V14.00,2013-01-04 23:57:00,
2013-01-04 19:02:00,59.0,57.6,30.12,NNE,22,0.0,0.0,95,0.02,,SKC,0.25,VWS V14.00,2013-01-05 00:02:00,
2013-01-04 19:07:00,59.0,57.6,30.12,North,0,0.0,0.0,95,0.02,,SKC,0.25,VWS V14.00,2013-01-05 00:07:00,
2013-01-04 19:12:00,59.0,57.6,30.12,North,0,0.0,0.0,95,0.02,,SKC,0.25,VWS V14.00,2013-01-05 00:12:00,
2013-01-04 19:17:00,59.0,57.6,30.11,North,0,0.0,0.0,95,0.02,,SKC,0.25,VWS V14.00,2013-01-05 00:17:00,
2013-01-04 19:22:00,59.0,57.6,30.11,North,0,0.0,0.0,95,0.02,,SKC,0.25,VWS V14.00,2013-01-05 00:22:00,
2013-01-04 19:28:00,59.0,57.6,30.12,North,0,0.0,0.0,95,0.02,,SKC,0.25,VWS V14.00,2013-01-05 00:28:00,
2013-01-04 19:33:00,59.0,57.6,30.12,North,0,0.0,0.0,95,0.02,,SKC,0.25,VWS V14.00,2013-01-05 00:33:00,
2013-01-04 19:38:00,59.0,57.6,30.11,North,0,0.0,0.0,95,0.02,,SKC,0.25,VWS V14.00,2013-01-05 00:38:00,
2013-01-04 19:43:00,59.0,57.6,30.12,North,0,0.0,0.0,95,0.00,,SKC,0.25,VWS V14.00,2013-01-05 00:43:00,
2013-01-04 19:48:00,59.0,57.6,30.12,North,0,0.0,0.0,95,0.00,,SKC,0.25,VWS V14.00,2013-01-05 00:48:00,
2013-01-04 19:53:00,59.0,57.6,30.12,North,0,0.0,0.0,95,0.00,,SKC,0.25,VWS V14.00,2013-01-05 00:53:00,
2013-01-04 19:58:00,59.0,57.6,30.12,North,0,0.0,0.0,95,0.00,,SKC,0.25,VWS V14.00,2013-01-05 00:58:00,
2013-01-04 20:04:00,59.0,57.6,30.12,North,0,0.0,0.0,95,0.00,,SKC,0.25,VWS V14.00,2013-01-05 01:04:00,
2013-01-04 20:09:00,59.0,57.6,30.12,North,0,0.0,0.0,95,0.00,,SKC,0.25,VWS V14.00,2013-01-05 01:09:00,
2013-01-04 20:14:00,59.0,57.6,30.12,North,0,0.0,0.0,95,0.00,,SKC,0.25,VWS V14.00,2013-01-05 01:14:00,
2013-01-04 20:19:00,59.0,57.6,30.12,North,0,0.0,0.0,95,0.00,,SKC,0.25,VWS V14.00,2013-01-05 01:19:00,
2013-01-04 20:24:00,59.0,57.6,30.13,North,0,0.0,0.0,95,0.00,,SKC,0.25,VWS V14.00,2013-01-05 01:24:00,
2013-01-04 20:29:00,59.0,57.6,30.13,North,0,0.0,0.0,95,0.00,,SKC,0.25,VWS V14.00,2013-01-05 01:29:00,
2013-01-04 20:34:00,58.8,57.4,30.13,North,0,0.0,0.0,95,0.00,,SKC,0.25,VWS V14.00,2013-01-05 01:34:00,
2013-01-04 20:40:00,58.6,56.9,30.13,North,0,0.0,0.0,94,0.00,,SKC,0.25,VWS V14.00,2013-01-05 01:40:00,
2013-01-04 20:45:00,58.6,56.9,30.13,North,0,0.0,0.0,94,0.00,,SKC,0.25,VWS V14.00,2013-01-05 01:45:00,
2013-01-04 20:50:00,58.6,56.9,30.14,North,0,0.0,0.0,94,0.00,,SKC,0.25,VWS V14.00,2013-01-05 01:50:00,
2013-01-04 20:55:00,58.6,56.9,30.14,North,0,0.0,0.0,94,0.00,,SKC,0.25,VWS V14.00,2013-01-05 01:55:00,
2013-01-04 21:00:00,58.4,56.7,30.14,North,0,0.0,0.0,94,0.00,,SKC,0.25,VWS V14.00,2013-01-05 02:00:00,
2013-01-04 21:05:00,58.2,56.5,30.14,North,0,0.0,0.0,94,0.00,,SKC,0.25,VWS V14.00,2013-01-05 02:05:00,
2013-01-04 21:10:00,58.2,56.5,30.14,North,0,0.0,0.0,94,0.00,,SKC,0.25,VWS V14.00,2013-01-05 02:10:00,
2013-01-04 21:15:00,58.1,56.4,30.14,North,0,0.0,0.0,94,0.00,,SKC,0.25,VWS V14.00,2013-01-05 02:15:00,
2013-01-04 21:20:00,57.9,56.2,30.14,NNE,22,0.0,0.0,94,0.00,,SKC,0.25,VWS V14.00,2013-01-05 02:20:00,
2013-01-04 21:25:00,57.9,56.2,30.14,North,0,0.0,0.0,94,0.00,,SKC,0.25,VWS V14.00,2013-01-05 02:25:00,
2013-01-04 21:31:00,57.9,56.2,30.14,NNE,22,0.0,0.0,94,0.00,,SKC,0.25,VWS V14.00,2013-01-05 02:31:00,
2013-01-04 21:36:00,57.7,56.0,30.14,NNE,22,0.0,0.0,94,0.00,,SKC,0.25,VWS V14.00,2013-01-05 02:36:00,
2013-01-04 21:41:00,57.7,56.0,30.14,NNE,22,0.0,0.0,94,0.00,,SKC,0.25,VWS V14.00,2013-01-05 02:41:00,
2013-01-04 21:46:00,57.7,56.0,30.14,NNE,22,0.0,0.0,94,0.00,,SKC,0.25,VWS V14.00,2013-01-05 02:46:00,
2013-01-04 21:51:00,57.7,56.0,30.13,NNE,22,0.0,0.0,94,0.00,,SKC,0.25,VWS V14.00,2013-01-05 02:51:00,
2013-01-04 21:56:00,57.5,55.8,30.13,NNE,22,0.0,0.0,94,0.00,,SKC,0.25,VWS V14.00,2013-01-05 02:56:00,
2013-01-04 22:01:00,57.5,55.8,30.13,NNE,22,0.0,0.0,94,0.00,,SKC,0.25,VWS V14.00,2013-01-05 03:01:00,
2013-01-04 22:06:00,57.5,55.8,30.13,NNE,22,0.0,0.0,94,0.00,,SKC,0.25,VWS V14.00,2013-01-05 03:06:00,
2013-01-04 22:11:00,57.5,55.8,30.13,NNE,22,0.0,0.0,94,0.00,,SKC,0.25,VWS V14.00,2013-01-05 03:11:00,
2013-01-04 22:17:00,57.5,55.8,30.13,NNE,22,0.0,0.0,94,0.00,,SKC,0.25,VWS V14.00,2013-01-05 03:17:00,
2013-01-04 22:22:00,57.5,55.8,30.13,NNE,22,0.0,0.0,94,0.00,,SKC,0.25,VWS V14.00,2013-01-05 03:22:00,
2013-01-04 22:27:00,57.3,55.6,30.13,NNE,22,0.0,0.0,94,0.00,,SKC,0.25,VWS V14.00,2013-01-05 03:27:00,
2013-01-04 22:32:00,57.3,55.6,30.13,NNE,22,0.0,0.0,94,0.00,,SKC,0.25,VWS V14.00,2013-01-05 03:32:00,
2013-01-04 22:37:00,57.2,55.5,30.13,NNE,22,0.0,0.0,94,0.00,,SKC,0.25,VWS V14.00,2013-01-05 03:37:00,
2013-01-04 22:42:00,57.2,55.5,30.13,NNE,22,0.0,0.0,94,0.00,,SKC,0.25,VWS V14.00,2013-01-05 03:42:00,
2013-01-04 22:47:00,57.2,55.5,30.12,NNE,22,0.0,0.0,94,0.00,,SKC,0.25,VWS V14.00,2013-01-05 03:47:00,
2013-01-04 22:52:00,57.0,55.3,30.12,NNE,22,0.0,0.0,94,0.00,,SKC,0.25,VWS V14.00,2013-01-05 03:52:00,
2013-01-04 22:57:00,57.0,55.3,30.13,NNE,22,0.0,0.0,94,0.00,,SKC,0.25,VWS V14.00,2013-01-05 03:57:00,
2013-01-04 23:02:00,57.0,55.3,30.13,NNE,22,0.0,0.0,94,0.00,,SKC,0.25,VWS V14.00,2013-01-05 04:02:00,
2013-01-04 23:07:00,57.0,55.3,30.13,NNE,22,0.0,0.0,94,0.00,,SKC,0.25,VWS V14.00,2013-01-05 04:07:00,
2013-01-04 23:13:00,56.8,54.8,30.14,North,0,0.0,0.0,93,0.00,,SKC,0.25,VWS V14.00,2013-01-05 04:13:00,
2013-01-04 23:18:00,56.8,54.8,30.13,North,0,0.0,0.0,93,0.00,,SKC,0.25,VWS V14.00,2013-01-05 04:18:00,
2013-01-04 23:23:00,56.8,54.8,30.13,North,0,0.0,0.0,93,0.00,,SKC,0.25,VWS V14.00,2013-01-05 04:23:00,
2013-01-04 23:28:00,56.8,55.1,30.14,North,0,0.0,0.0,94,0.00,,SKC,0.25,VWS V14.00,2013-01-05 04:28:00,
2013-01-04 23:33:00,56.6,54.9,30.13,NNE,22,0.0,0.0,94,0.00,,SKC,0.25,VWS V14.00,2013-01-05 04:33:00,
2013-01-04 23:38:00,56.6,54.9,30.13,NNE,22,0.0,0.0,94,0.00,,SKC,0.25,VWS V14.00,2013-01-05 04:38:00,
2013-01-04 23:43:00,56.6,54.6,30.13,NNE,22,0.0,0.0,93,0.00,,SKC,0.25,VWS V14.00,2013-01-05 04:43:00,
2013-01-04 23:48:00,56.6,54.6,30.13,NNE,22,0.0,0.0,93,0.00,,SKC,0.25,VWS V14.00,2013-01-05 04:48:00,
2013-01-04 23:54:00,56.6,54.6,30.13,NNE,22,0.0,0.0,93,0.00,,SKC,0.25,VWS V14.00,2013-01-05 04:54:00,
2013-01-04 23:59:00,56.4,54.4,30.13,NNW,338,0.0,0.0,93,0.00,,SKC,0.25,VWS V14.00,2013-01-05 04:59:00,